Location: Nied?wied?
(53.3665°N, 14.8184°E)
Time: 22:11:20
(UTC+00:00)

Cosmos 2218 Rocket - Pass Details

Date: 03 March 2021
Orbit: 955 x 1007 km, 82.9° (Epoch: 12 April)

Event Time Altitude Azimuth Distance (km) Brightness Sun altitude
Rises 18:49:25 0° 182° (S) 3,724 6.9 -19.5°
Reaches altitude 10° 18:51:57 10° 181° (S) 2,779 6.2 -19.9°
Maximum altitude 18:58:20 76° 97° (E) 1,041 3.9 -20.8°
Drops below altitude 10° 19:04:44 10° 13° (NNE) 2,787 6.5 -21.7°
Sets 19:07:16 0° 12° (NNE) 3,735 7.2 -22.1°
